Location: Tucson
(32.2217°N, 110.9265°W)
Time: 13:55:47
(UTC-07:00)

Tiangong - Visible Passes

Search period start: 24 July 2024 00:00
Search period end: 03 August 2024 00:00
Orbit: 389 x 392 km, 41.5° (Epoch: 24 July)

Date Brightness Start Highest point End Pass type
(mag) Time Alt. Az. Time Alt. Az. Time Alt. Az.
24 Jul 0.0 03:32:27 21° ESE 03:32:27 21° ESE 03:33:39 10° ESE visible
24 Jul 0.0 05:05:51 10° WSW 05:07:04 12° SW 05:08:17 10° SSW visible
24 Jul -0.5 20:01:01 10° S 20:03:17 18° SE 20:05:32 10° E visible
24 Jul 0.1 21:36:54 10° WSW 21:38:10 21° W 21:38:10 21° W visible
25 Jul -2.3 20:39:01 10° WSW 20:42:12 80° SSE 20:44:31 17° ENE visible
25 Jul 1.3 22:16:50 10° WNW 22:16:55 11° WNW 22:16:55 11° WNW visible
26 Jul -0.2 21:18:31 10° W 21:21:25 30° NNW 21:22:42 22° NNE visible
27 Jul -1.1 20:20:20 10° WSW 20:23:25 48° NNW 20:26:33 10° NE visible
27 Jul 0.8 21:58:39 10° NW 22:00:24 17° NNW 22:00:24 17° NNW visible
28 Jul 0.4 21:00:12 10° WNW 21:02:43 21° NNW 21:05:15 10° NE visible
29 Jul -0.1 20:01:47 10° W 20:04:36 28° NNW 20:07:26 10° NE visible
29 Jul 0.7 21:40:11 10° NW 21:42:12 15° N 21:42:34 15° N visible
30 Jul 0.7 20:41:47 10° NW 20:43:58 17° N 20:46:07 10° NE visible
30 Jul 1.5 22:19:22 10° NW 22:19:32 11° NW 22:19:32 11° NW visible
31 Jul 0.4 19:43:15 10° WNW 19:45:42 20° NNW 19:48:09 10° NE visible
31 Jul 0.5 21:21:19 10° NW 21:23:23 16° N 21:24:05 15° NNE visible
01 Aug 0.7 20:23:04 10° NW 20:25:04 15° N 20:27:03 10° NE visible
01 Aug 1.1 22:00:02 10° NW 22:00:51 15° NNW 22:00:51 15° NNW visible
02 Aug 0.1 21:02:03 10° NW 21:04:24 19° N 21:05:15 17° NNE visible
